EW6237 Weather Reports


time (UTC)temp
F
wind
direction
speed
knots
gust
knots
rain 1hr
in
rain 24hr
in
rain mn
in
humidity
%
barometer
mb
20260505101518 62 201 0.0 3.5 0.00 0.00 0.00 73 1009.0
20260505100017 63 201 0.9 2.6 0.00 0.00 0.00 66 1008.8
20260505094517 63 201 0.9 2.6 0.00 0.00 0.00 66 1008.3
20260505093010 63 202 0.9 3.5 0.00 0.00 0.00 66 1007.7
20260505091510 63 201 1.7 3.5 0.00 0.00 0.00 65 1007.3
20260505090006 63 201 0.9 3.5 0.00 0.00 0.00 64 1006.9
20260505084508 63 202 0.9 3.5 0.00 0.00 0.00 64 1006.7
20260505083010 63 201 0.9 2.6 0.00 0.00 0.00 64 1006.5
20260505081504 63 202 0.9 4.3 0.00 0.00 0.00 64 1006.4
20260505080011 64 202 0.9 3.5 0.00 0.00 0.00 63 1006.4
20260505074502 63 201 0.0 3.5 0.00 0.00 0.00 64 1006.3
20260505073003 63 201 0.9 2.6 0.00 0.00 0.00 65 1006.3
20260505071503 63 202 0.0 1.7 0.00 0.00 0.00 65 1006.2
20260505064610 63 201 0.0 1.7 0.00 0.00 0.00 65 1006.5
20260505063100 63 201 0.0 2.6 0.00 0.00 0.00 65 1006.4
20260505061558 63 201 0.0 2.6 0.00 0.00 0.00 65 1006.4
20260505054555 64 202 0.9 2.6 0.00 0.00 0.00 64 1006.1
20260505053053 64 201 0.9 3.5 0.00 0.00 0.00 64 1006.1
20260505051551 64 201 0.9 2.6 0.00 0.00 0.00 64 1006.1
20260505041553 64 201 0.0 0.9 0.00 0.00 0.00 64 1006.7
20260505040047 65 202 0.0 1.7 0.00 0.00 0.00 63 1006.8
20260505034540 65 201 0.0 1.7 0.00 0.00 0.00 63 1006.7
20260505033040 65 201 0.0 2.6 0.00 0.00 0.00 62 1006.6
20260505031539 65 202 0.0 1.7 0.00 0.00 0.00 63 1006.4
20260505030046 65 201 0.0 0.9 0.00 0.00 0.00 63 1006.4
20260505024538 66 201 0.0 0.9 0.00 0.00 0.00 63 1006.3
20260505023036 66 201 0.0 0.9 0.00 0.00 0.00 62 1006.1
20260505021536 66 202 0.0 1.7 0.00 0.00 0.00 62 1005.8
20260505020040 67 201 0.0 1.7 0.00 0.00 0.00 61 1005.4
20260505014553 67 201 0.0 0.9 0.00 0.00 0.00 60 1005.1
20260505013039 68 201 0.0 0.9 0.00 0.00 0.00 58 1005.2
20260505011539 69 201 0.0 2.6 0.00 0.00 0.00 57 1005.1
20260505010030 69 201 0.9 3.5 0.00 0.00 0.00 56 1005.0
20260505004540 70 201 0.0 0.9 0.00 0.00 0.00 55 1005.1
20260505003049 71 202 0.0 0.9 0.00 0.00 0.00 54 1005.1
20260505001526 72 201 0.0 2.6 0.00 0.00 0.00 52 1005.3
20260505000030 73 202 0.0 5.2 0.00 0.00 0.00 51 1005.4
20260504234524 73 201 1.7 3.5 0.00 0.00 0.00 52 1005.4
20260504233023 73 201 0.0 2.6 0.00 0.00 0.00 52 1005.5
20260504231521 74 201 0.0 3.5 0.00 0.00 0.00 51 1005.8
20260504230019 74 201 0.0 4.3 0.00 0.00 0.00 51 1006.1
20260504224519 74 201 0.9 3.5 0.00 0.00 0.00 50 1006.2
20260504223018 75 201 1.7 7.0 0.00 0.00 0.00 47 1006.4
20260504221515 75 201 1.7 4.3 0.00 0.00 0.00 48 1006.5
20260504220013 75 201 1.7 5.2 0.00 0.00 0.00 47 1006.5
20260504214516 75 201 0.9 5.2 0.00 0.00 0.00 47 1006.7
20260504213021 76 201 1.7 8.7 0.00 0.00 0.00 45 1006.7
20260504211525 76 201 1.7 5.2 0.00 0.00 0.00 45 1006.9
20260504210008 75 202 0.0 4.3 0.00 0.00 0.00 50 1006.8
20260504204506 76 201 0.0 3.5 0.00 0.00 0.00 49 1006.8
20260504203004 76 201 0.0 1.7 0.00 0.00 0.00 51 1006.9
20260504201502 76 201 0.9 4.3 0.00 0.00 0.00 51 1007.0
20260504200100 76 201 0.9 3.5 0.00 0.00 0.00 53 1007.4
20260504194600 76 202 1.7 6.1 0.00 0.00 0.00 50 1007.6
20260504193107 76 201 0.9 5.2 0.00 0.00 0.00 51 1007.8
20260504191608 76 201 0.0 4.3 0.00 0.00 0.00 56 1008.0
20260504190104 75 202 0.0 3.5 0.00 0.00 0.00 53 1008.3
20260504184552 75 201 1.7 4.3 0.00 0.00 0.00 52 1008.4
20260504183047 75 201 1.7 4.3 0.00 0.00 0.00 54 1008.4
20260504181548 74 202 1.7 5.2 0.00 0.00 0.00 53 1008.2
20260504180042 73 202 0.0 5.2 0.00 0.00 0.00 58 1008.3
20260504174544 73 201 1.7 6.1 0.00 0.00 0.00 58 1008.3
20260504173037 72 201 0.9 4.3 0.00 0.00 0.00 60 1008.4
20260504171534 71 202 0.9 3.5 0.00 0.00 0.00 61 1008.6